Find Starlink 34725

NORAD ID: 64843 Int'l Des: 2025-152 Owner: SPXS Country: US Constellation: starlink operational
LEOCIRCULARRETROGRADESSO

Live Position

Loading 3D Globe...

About Starlink 34725

Description loading...

Upcoming Passes

Passes for default location (London). Set your location on the main map for personalized predictions.

Altitude History

Loading altitude history...

Two-Line Element Set

1 64843U 25152B 26106.55723865 .00001151 00000-0 83983-4 0 9999
2 64843 97.6044 322.8069 0001391 94.3377 265.8008 15.05657602 41117
Epoch: Apr 16, 2026 • Age: 23 hours

Current Status

Altitude 561.9 km
Velocity 7.59 km/s
Sub-Earth Point 80.08°N, 112.39°W
Launch Date Jul 19, 2025
Age 0.7 years
Type internet

Technical Details

Classification Payload
Mass 575.00 kg
Dry Mass 530.00 kg
Total Mass 575.00 kg
Length 0.30 m
Diameter 4.10 m
Span 29.00 m
Shape Box + pan
Manufacturer SPXS
Bus Type Starlink V2MO
Phase Status In Orbit
Owner/State SPXS/US

Most Searched